Weather History for Whiteman AFB, MO

Change the Weather History Date:

Saturday, March 16, 2013

  Actual Average Record
Temperature  
Mean Temperature 48 °F -  
Max Temperature 60 °F 51 °F 81 °F (2012)
Min Temperature 37 °F 32 °F 22 °F (2014)
Degree Days  
Heating Degree Days 16    
Moisture  
Dew Point 37 °F    
Average Humidity 81    
Maximum Humidity 100    
Minimum Humidity 67    
Precipitation  
Precipitation 0.00 in - - ()
Sea Level Pressure  
Sea Level Pressure 29.96 in    
Wind  
Wind Speed 14 mph (NNE)    
Max Wind Speed 22 mph    
Max Gust Speed 32 mph    
Visibility 10 miles    
Events      
Averages and records for this station are not official NWS values.
T = Trace of Precipitation, MM = Missing Value Source: NWS Daily Summary

Daily Weather History Graph

Daily Weather History Graph

Search for Another Location

Airport:

Trip Planner

Search our weather history database for the weather conditions in past years. The results will help you decide how hot, cold, wet, or windy it might be!

Date:

Astronomy

Mar. 16, 2013 Rise Set
Actual Time 7:23 AM CDT 7:22 PM CDT
Civil Twilight 6:57 AM CDT 7:49 PM CDT
Nautical Twilight 6:26 AM CDT 8:19 PM CDT
Astronomical Twilight 5:54 AM CDT 8:51 PM CDT
Moon 9:56 AM CDT (3/16) No Moon Set
Length of Visible Light 12h 52m
Length of Day
11h 59m
Waxing Crescent, 23% of the Moon is Illuminated
Mar 16
Waxing Crescent
Mar 19
First Quarter
Mar 27
Full
Apr 2
Last Quarter
Apr 10
New

Hourly Weather History & Observations

Time (CDT) Temp. Windchill Dew Point Humidity Pressure Visibility Wind Dir Wind Speed Gust Speed Precip Events Conditions
12:58 AM 60.1 °F - 49.3 °F 67% 29.68 in 10.0 mi WSW 9.2 mph - N/A   Clear
1:58 AM 59.7 °F - 48.9 °F 67% 29.70 in 10.0 mi WSW 10.4 mph - N/A   Clear
2:58 AM 57.7 °F - 47.8 °F 70% 29.74 in 10.0 mi NNW 11.5 mph - N/A   Clear
3:58 AM 52.0 °F - 47.5 °F 85% 29.78 in 10.0 mi NNW 10.4 mph - N/A   Clear
4:58 AM 48.2 °F - 47.1 °F 96% 29.80 in 10.0 mi NNW 10.4 mph - N/A   Clear
5:58 AM 46.0 °F 39.6 °F 45.9 °F 99% 29.83 in 10.0 mi North 15.0 mph - N/A   Mostly Cloudy
6:43 AM 42.8 °F 34.5 °F 42.8 °F 100% 29.87 in 9.0 mi North 18.4 mph - N/A   Mostly Cloudy
6:53 AM 42.8 °F 34.3 °F 42.8 °F 100% 29.87 in 9.0 mi North 19.6 mph 27.6 mph N/A   Mostly Cloudy
6:58 AM 43.0 °F 34.5 °F 42.8 °F 99% 29.89 in 8.0 mi North 19.6 mph 27.6 mph N/A   Mostly Cloudy
7:03 AM 42.8 °F 34.5 °F 42.8 °F 100% 29.88 in 8.0 mi North 18.4 mph 24.2 mph N/A   Mostly Cloudy
7:58 AM 39.7 °F 29.7 °F 39.6 °F 99% 29.93 in 7.0 mi North 21.9 mph 32.2 mph N/A   Overcast
8:23 AM 39.2 °F 29.3 °F 39.2 °F 100% 29.92 in 9.0 mi North 20.7 mph 29.9 mph N/A   Overcast
8:58 AM 39.6 °F 30.6 °F 38.8 °F 97% 29.97 in 10.0 mi North 17.3 mph - N/A   Overcast
9:58 AM 40.1 °F 31.0 °F 37.9 °F 92% 29.97 in 10.0 mi NNE 18.4 mph - N/A   Overcast
10:53 AM 41.0 °F 32.2 °F 37.4 °F 87% 29.98 in 10.0 mi NNE 18.4 mph - N/A   Overcast
10:58 AM 41.4 °F 33.0 °F 36.9 °F 84% 29.99 in 10.0 mi NNE 17.3 mph 23.0 mph N/A   Overcast
11:58 AM 42.8 °F 35.8 °F 36.9 °F 80% 30.02 in 10.0 mi NNE 13.8 mph - N/A   Overcast
12:58 PM 43.0 °F 36.4 °F 36.3 °F 77% 30.02 in 10.0 mi NNE 12.7 mph - N/A   Overcast
1:58 PM 43.3 °F 36.1 °F 36.5 °F 77% 30.02 in 10.0 mi North 15.0 mph - N/A   Overcast
2:58 PM 43.3 °F 36.5 °F 35.1 °F 73% 29.99 in 10.0 mi NNE 13.8 mph - N/A   Mostly Cloudy
3:58 PM 42.8 °F 36.2 °F 34.7 °F 73% 30.02 in 10.0 mi NNE 12.7 mph - N/A   Mostly Cloudy
4:58 PM 43.0 °F 36.8 °F 34.2 °F 71% 30.01 in 10.0 mi ENE 11.5 mph - N/A   Overcast
5:33 PM 42.8 °F 36.2 °F 33.8 °F 70% 29.99 in 10.0 mi NE 12.7 mph - N/A   Mostly Cloudy
5:37 PM 42.8 °F 36.2 °F 33.8 °F 70% 29.99 in 10.0 mi NE 12.7 mph - N/A   Light Drizzle
5:48 PM 42.8 °F 35.4 °F 33.8 °F 70% 30.00 in 10.0 mi NE 15.0 mph - N/A   Mostly Cloudy
5:58 PM 42.4 °F 35.0 °F 34.5 °F 74% 30.02 in 10.0 mi NE 15.0 mph - 0.00 in   Scattered Clouds
6:48 PM 41.0 °F 34.7 °F 33.8 °F 76% 30.00 in 10.0 mi NNE 10.4 mph - N/A   Mostly Cloudy
6:58 PM 41.5 °F 35.0 °F 33.8 °F 74% 30.02 in 10.0 mi NNE 11.5 mph - N/A   Mostly Cloudy
7:13 PM 41.0 °F 33.5 °F 32.0 °F 70% 30.00 in 10.0 mi NNE 13.8 mph - N/A   Overcast
7:38 PM 41.0 °F 32.8 °F 32.0 °F 70% 30.01 in 10.0 mi NNE 16.1 mph - N/A   Overcast
7:55 PM 39.2 °F 31.2 °F 32.0 °F 75% 30.02 in 10.0 mi NNE 13.8 mph - N/A   Overcast
7:58 PM 39.9 °F 31.8 °F 32.9 °F 76% 30.05 in 10.0 mi NE 15.0 mph - 0.00 in   Overcast
8:58 PM 39.0 °F 31.4 °F 32.2 °F 76% 30.04 in 10.0 mi NE 12.7 mph - N/A   Overcast
9:58 PM 38.3 °F 29.3 °F 31.6 °F 77% 30.06 in 10.0 mi NE 16.1 mph - N/A   Overcast
10:58 PM 37.4 °F 28.2 °F 30.9 °F 77% 30.07 in 10.0 mi NE 16.1 mph - N/A   Mostly Cloudy
11:08 PM 37.4 °F 30.3 °F 32.0 °F 81% 30.04 in 10.0 mi NE 10.4 mph - N/A   Mostly Cloudy
11:48 PM 37.4 °F 29.8 °F 32.0 °F 81% 30.06 in 10.0 mi NE 11.5 mph - N/A   Overcast
11:58 PM 37.2 °F 29.1 °F 30.9 °F 78% 30.09 in 10.0 mi NNE 12.7 mph - N/A   Overcast